JA0BES-13 Nagano Prefecture JP current weather conditions

sailwx.info

Wind from 225

Air temperature 12.8° C
Dewpoint 10.1° C

Last reported at 2018-Apr-19 16:06 UTC.
Time now 2018-Apr-19 17:02 UTC

Location: N 36°40' E 138°12'.
View on Google Maps.

See reports from other nearby stations

  
Tides and Currents Weather Stations Pressure Air Temp Water Temp Dewpoint Dewpoint Depression Visibility Wind Speed Wind Dir Waves Ship Positions
date/time (UTC)wind fromknots sea level pressurealtimeterstation pressurevisibilityair tempwater tempwave heightnotes
2018-Apr-19 16:06 225 12.8
2018-Apr-19 15:46 225 13.3
2018-Apr-19 15:16 225 13.3
2018-Apr-19 15:06 180 13.3
2018-Apr-19 14:46 180 13.3
2018-Apr-19 14:26 225 13.9
2018-Apr-19 14:16 225 13.9
2018-Apr-19 14:06 225 13.9
2018-Apr-19 13:56 225 13.9
2018-Apr-19 13:46 225 13.9
2018-Apr-19 13:36 225 14.4
2018-Apr-19 13:26 225 14.4
2018-Apr-19 13:16 225 14.4
2018-Apr-19 13:06 225 14.4
2018-Apr-19 12:56 225 15.0
2018-Apr-19 12:46 225 15.0
2018-Apr-19 12:36 225 15.0
2018-Apr-19 12:26 225 15.6
2018-Apr-19 12:16 225 15.6
2018-Apr-19 12:06 225 15.6
2018-Apr-19 11:56 225 15.6
2018-Apr-19 11:46 225 15.6
2018-Apr-19 11:36 225 15.6
2018-Apr-19 11:26 225 15.6
2018-Apr-19 11:16 265 0 gusting 0 15.6
2018-Apr-19 10:56 240 16.1
2018-Apr-19 10:46 220 16.1
2018-Apr-19 10:36 265 16.7
2018-Apr-19 10:26 212 16.7
2018-Apr-19 10:16 090 16.7
2018-Apr-19 10:06 229 17.2
2018-Apr-19 09:56 095 0 gusting 1 17.2
2018-Apr-19 09:46 167 17.8
2018-Apr-19 09:36 210 17.8
2018-Apr-19 09:26 320 0 gusting 2 18.3
2018-Apr-19 09:16 270 0 gusting 3 18.9
2018-Apr-19 09:06 205 19.4
2018-Apr-19 08:56 227 19.4
2018-Apr-19 08:46 270 20.0
2018-Apr-19 08:36 265 2 gusting 2 21.1
2018-Apr-19 08:26 261 0 gusting 2 22.2
2018-Apr-19 08:16 238 0 gusting 1 22.8
2018-Apr-19 08:06 229 22.8
2018-Apr-19 07:56 270 23.3
2018-Apr-19 07:46 085 0 gusting 0 23.3
2018-Apr-19 07:36 238 23.9
2018-Apr-19 07:26 225 23.9
2018-Apr-19 07:16 225 24.4
2018-Apr-19 07:06 225 24.4
2018-Apr-19 06:56 171 24.4
2018-Apr-19 06:46 180 25.0
2018-Apr-19 06:36 238 25.0
2018-Apr-19 06:26 225 25.0
2018-Apr-19 06:16 225 25.0
2018-Apr-19 06:06 225 25.0
2018-Apr-19 05:56 232 24.4
2018-Apr-19 05:46 150 0 gusting 0 24.4
2018-Apr-19 05:36 237 0 gusting 2 24.4
2018-Apr-19 05:26 108 2 gusting 3 24.4
2018-Apr-19 05:16 096 2 gusting 2 24.4
2018-Apr-19 05:06 123 1 gusting 2 23.9
2018-Apr-19 04:56 213 23.9
2018-Apr-19 04:46 270 1 gusting 3 23.9
2018-Apr-19 04:36 097 1 gusting 3 23.9
2018-Apr-19 04:26 130 1 gusting 4 23.9
2018-Apr-19 04:16 120 0 gusting 2 23.9
2018-Apr-19 04:06 108 2 gusting 2 23.9
2018-Apr-19 03:56 270 23.3
2018-Apr-19 03:46 108 1 gusting 1 23.3
2018-Apr-19 03:36 217 0 gusting 2 22.8
2018-Apr-19 03:26 237 22.8
2018-Apr-19 03:16 225 22.2
2018-Apr-19 03:06 094 0 gusting 0 22.2
2018-Apr-19 02:56 225 21.7
2018-Apr-19 02:46 117 0 gusting 0 21.1
2018-Apr-19 02:36 240 21.1
2018-Apr-19 02:26 225 0 gusting 0 20.6
2018-Apr-19 02:16 238 20.0
2018-Apr-19 01:56 225 18.9
2018-Apr-19 01:46 238 18.3
2018-Apr-19 01:26 222 17.8
2018-Apr-19 01:16 229 17.2
2018-Apr-19 01:06 193 0 gusting 1 16.7
2018-Apr-19 00:56 180 16.7
2018-Apr-19 00:46 185 16.1
2018-Apr-19 00:36 180 15.6
2018-Apr-19 00:26 146 15.0
2018-Apr-19 00:16 247 14.4
2018-Apr-19 00:06 225 0 gusting 0 14.4
2018-Apr-18 23:56 247 13.9
2018-Apr-18 23:46 252 13.3
2018-Apr-18 23:36 216 12.8
2018-Apr-18 23:16 225 12.2
2018-Apr-18 23:06 270 11.7
2018-Apr-18 22:56 225 0 gusting 0 11.1
2018-Apr-18 22:46 220 11.1
2018-Apr-18 22:36 225 10.6
2018-Apr-18 22:26 185 10.0
2018-Apr-18 22:16 180 9.4
2018-Apr-18 22:06 225 8.9
2018-Apr-18 21:56 225 8.9
2018-Apr-18 21:46 225 8.3
2018-Apr-18 21:36 225 8.3
2018-Apr-18 21:26 225 8.3
2018-Apr-18 21:05 225 7.8
2018-Apr-18 20:56 225 7.8
2018-Apr-18 20:45 225 7.8
2018-Apr-18 20:35 225 7.8
2018-Apr-18 20:25 225 7.8
2018-Apr-18 20:05 225 7.8
2018-Apr-18 19:45 225 8.3
2018-Apr-18 19:25 225 8.3
2018-Apr-18 19:05 225 8.3
2018-Apr-18 18:45 225 8.9
2018-Apr-18 18:25 225 8.9
2018-Apr-18 18:05 225 8.9
2018-Apr-18 17:45 225 9.4
2018-Apr-18 17:25 225 9.4
2018-Apr-18 17:05 225 9.4
2018-Apr-18 16:45 225 9.4
2018-Apr-18 16:25 225 10.0
2018-Apr-18 16:05 225 10.0
2018-Apr-18 15:45 225 10.0
2018-Apr-18 15:25 225 10.6
2018-Apr-18 15:05 225 10.6
2018-Apr-18 14:55 225 10.6
2018-Apr-18 14:45 225 10.6
2018-Apr-18 14:25 225 10.6
2018-Apr-18 14:05 225 11.1
2018-Apr-18 13:55 225 11.1
2018-Apr-18 13:45 225 11.1
2018-Apr-18 13:35 225 11.7
2018-Apr-18 13:25 225 11.7
2018-Apr-18 13:15 225 11.7
2018-Apr-18 13:05 225 11.7
2018-Apr-18 12:55 225 11.7
2018-Apr-18 12:45 225 11.7
2018-Apr-18 12:35 225 12.2
2018-Apr-18 12:25 126 0 gusting 0 12.2
2018-Apr-18 12:15 225 12.8
2018-Apr-18 12:05 225 12.8
2018-Apr-18 11:55 191 12.8
2018-Apr-18 11:45 225 12.8
2018-Apr-18 11:35 225 12.8
2018-Apr-18 11:25 225 12.8
2018-Apr-18 11:15 200 13.3
2018-Apr-18 11:05 225 13.3
2018-Apr-18 10:55 225 13.3
2018-Apr-18 10:45 225 13.3
2018-Apr-18 10:35 225 13.3
2018-Apr-18 10:25 225 13.3
2018-Apr-18 10:15 225 13.9
2018-Apr-18 10:05 227 13.9
2018-Apr-18 09:55 225 13.9
2018-Apr-18 09:45 166 13.9
2018-Apr-18 09:35 229 0 gusting 0 13.9
2018-Apr-18 09:25 225 14.4
2018-Apr-18 09:15 225 14.4
2018-Apr-18 09:05 256 0 gusting 1 14.4
2018-Apr-18 08:55 202 15.0
2018-Apr-18 08:45 243 15.0
2018-Apr-18 08:35 221 15.6
2018-Apr-18 08:25 260 15.6
2018-Apr-18 08:15 225 16.1
2018-Apr-18 08:05 225 16.1
2018-Apr-18 07:55 222 16.1
2018-Apr-18 07:45 125 0 gusting 0 16.7
2018-Apr-18 07:35 227 16.7
2018-Apr-18 07:25 189 16.7
2018-Apr-18 07:15 217 0 gusting 2 17.2
2018-Apr-18 07:05 207 17.2
2018-Apr-18 06:55 225 17.8
2018-Apr-18 06:45 220 17.8
2018-Apr-18 06:35 225 17.8
2018-Apr-18 06:25 225 17.8
2018-Apr-18 06:15 225 18.3
2018-Apr-18 06:05 270 0 gusting 1 18.3
2018-Apr-18 05:55 225 18.3
2018-Apr-18 05:45 207 17.8
2018-Apr-18 05:35 225 0 gusting 0 17.8
2018-Apr-18 05:25 270 17.8
2018-Apr-18 05:15 265 0 gusting 1 17.2
2018-Apr-18 05:05 243 16.7
2018-Apr-18 04:55 225 16.1
2018-Apr-18 04:45 234 0 gusting 2 16.1
2018-Apr-18 04:35 261 2 gusting 3 16.1
2018-Apr-18 04:25 157 0 gusting 1 15.6
2018-Apr-18 04:15 225 15.6
2018-Apr-18 04:05 202 0 gusting 5 15.6
2018-Apr-18 03:55 191 1 gusting 3 15.6
2018-Apr-18 03:45 225 15.0
2018-Apr-18 03:35 261 3 gusting 4 15.0
2018-Apr-18 03:25 274 1 gusting 4 14.4
2018-Apr-18 03:15 202 1 gusting 4 14.4
2018-Apr-18 03:05 234 1 gusting 6 13.9
2018-Apr-18 02:55 180 1 gusting 4 13.9
2018-Apr-18 02:45 135 1 gusting 5 13.3
2018-Apr-18 02:35 256 13.3
2018-Apr-18 02:25 239 12.2
2018-Apr-18 02:15 265 3 gusting 4 11.7
2018-Apr-18 02:05 256 0 gusting 1 11.1
2018-Apr-18 01:55 217 0 gusting 1 10.6
2018-Apr-18 01:45 265 0 gusting 2 10.6
2018-Apr-18 01:35 245 0 gusting 0 10.6
2018-Apr-18 01:25 265 1 gusting 1 10.0
2018-Apr-18 01:15 243 0 gusting 1 10.0
2018-Apr-18 01:05 261 1 gusting 3 10.0
2018-Apr-18 00:55 222 0 gusting 3 10.0
2018-Apr-18 00:45 258 2 gusting 2 10.0
2018-Apr-18 00:35 261 2 gusting 3 10.0
2018-Apr-18 00:25 225 10.0
2018-Apr-18 00:15 279 2 gusting 3 10.0
2018-Apr-18 00:05 265 1 gusting 2 10.0
2018-Apr-17 23:55 270 3 gusting 5 10.0
2018-Apr-17 23:45 265 5 gusting 5 10.6
2018-Apr-17 23:35 256 10.6
2018-Apr-17 23:25 265 0 gusting 3 10.6
2018-Apr-17 23:15 252 0 gusting 1 10.6
2018-Apr-17 23:05 261 2 gusting 2 10.6
2018-Apr-17 22:55 225 10.6
2018-Apr-17 22:45 225 10.6
2018-Apr-17 22:35 247 10.6
2018-Apr-17 22:15 225 10.6
2018-Apr-17 22:05 225 10.6
2018-Apr-17 21:55 225 10.6
2018-Apr-17 21:45 225 10.0
2018-Apr-17 21:35 225 10.0
2018-Apr-17 21:25 225 10.6
2018-Apr-17 21:05 225 10.0
2018-Apr-17 20:45 225 10.0
2018-Apr-17 20:25 225 10.0
2018-Apr-17 20:05 225 10.0
2018-Apr-17 19:45 225 10.0
2018-Apr-17 19:25 225 10.0
2018-Apr-17 19:05 225 10.0
2018-Apr-17 18:45 225 10.0
2018-Apr-17 18:25 225 10.6
2018-Apr-17 18:05 225 10.6
2018-Apr-17 17:45 225 10.0
2018-Apr-17 17:24 225 10.0
2018-Apr-17 17:14 225 10.0
2018-Apr-17 17:04 222 10.0